CZ-11H R/B

基本信息
目录编号:
54022
目录名称:
CZ-11H R/B
国际标识:
2022-126C
轨道中心:
EARTH
物体状态:
已陨落(2024-04-21)
发射日期:
2022-10-07 UTC
国别:
中国 (CN)
轨道信息
数据来源: 国际轨道数据
星历时间: 2024-04-22T01:30:11+0800
半长轴: 6516.673km
偏心率: 0.0006577
轨道倾角: 56.112°
近地点辐角: 118.022°
升交点赤经: 253.850°
平近点角: 289.494°
近地点: 134.251km
远地点: 142.825km
周期: 87.257分钟
每日圈数: 16.503039
详细信息
发射场:
YSLA
轨道高度:
LEO
数据来源:
AOE Integration Group
参考系:
TEME
时间系统:
UTC
历元类型:
SGP4
2D轨道图
3D轨道图
轨道高度分析图
轨道倾角分析图
轨道综合分析图
查看轨道综合分析图